Location: Cinq-Fonds
(47.4539°N, 4.8145°E)
Time: 11:02:47
(UTC+00:00)

Daily predictions for brighter satellites

Satellite Brightness Start Highest point End
(mag) Time Altitude Azimuth Time Altitude Azimuth Time Altitude Azimuth
Cosmos 1980 4.2 16:19:46 10° SW 16:25:22 61° WNW 16:31:02 10° NNE
NOAA 6 4.0 16:21:11 10° SSE 16:26:17 68° ENE 16:31:24 10° N
Okean O Rocket 2.2 16:22:27 10° SE 16:26:24 34° ENE 16:30:24 10° N
Cosmos 1782 4.4 16:24:25 10° SE 16:26:58 17° E 16:29:32 10° NE
ISS -3.0 16:26:23 10° WNW 16:29:35 40° N 16:32:47 10° ENE
Cosmos 1633 Rocket 3.5 16:26:02 10° N 16:30:11 40° ENE 16:34:17 10° SE
H-2A R/B 2.9 16:26:57 10° SSE 16:30:47 83° WSW 16:34:43 10° NNW
Cosmos 1933 3.9 16:28:40 10° SSE 16:32:26 38° E 16:36:14 10° NNE
Spot 2 4.5 16:28:20 10° SSE 16:33:05 87° WSW 16:38:08 10° NNW
Meteor 2-12 Rocket 4.4 16:28:11 10° N 16:34:22 76° E 16:40:28 10° SSE
Nadezhda 1 Rocket 4.3 16:28:19 10° SSW 16:34:41 77° W 16:41:08 10° N
Cosmos 2218 Rocket 4.2 16:30:42 10° N 16:36:35 45° ENE 16:42:28 10° SSE
Cosmos 2366 rocket 4.3 16:31:39 10° N 16:37:33 44° ENE 16:43:23 10° SE
Meteor 1-25 Rocket 4.4 16:32:52 10° N 16:38:26 54° ENE 16:44:00 10° SSE
ERS-2 3.9 16:36:27 10° ENE 16:38:36 15° E 16:40:44 10° SE
Cosmos 1867 3.7 16:33:10 10° SW 16:38:37 79° NW 16:44:07 10° NE
Envisat 3.1 16:37:26 10° SSE 16:42:32 88° WSW 16:47:38 10° NNW
Lacrosse 5 rocket 1.1 16:43:21 10° WSW 16:47:02 75° NW 16:50:15 12° NE
Cosmos 773 Rocket 4.2 16:43:27 10° S 16:48:33 53° ESE 16:53:42 10° NNE
YAOGAN 6 2.7 16:47:58 10° S 16:51:36 83° WSW 16:55:13 10° NNW
Cosmos 2297 4.0 16:48:21 10° NNW 16:54:02 74° WSW 16:59:43 10° SSE
Cosmos 1606 3.1 16:50:14 10° SSW 16:54:06 67° W 16:57:59 10° N
OE (NEXTSAT) 4.5 16:52:08 10° W 16:55:35 70° S 16:58:30 14° E
AQUARIUS 4.1 16:52:18 10° SSE 16:56:46 68° ENE 17:01:14 10° N
FengYun 1-2 T 4.3 16:51:25 10° SE 16:56:48 56° ENE 17:02:11 10° N
CZ-4B R/B 2.4 16:56:25 15° NE 16:58:16 25° E 17:00:56 10° SSE
SL-16 R/B 2.2 16:52:50 10° SSW 16:58:30 90° SSW 17:04:13 10° NNE
Landsat 5 3.8 16:54:57 10° NNE 16:59:25 79° WNW 17:03:56 10° SSW
BREEZE-M DEB (TANK) 2.0 16:59:55 10° SW 17:02:27 49° SSE 17:03:26 23° E
USA 215 4.4 16:59:20 13° ENE 17:03:38 25° SE 17:08:49 10° S
Cosmos 1500 4.2 17:02:33 10° NNE 17:05:42 24° ENE 17:08:50 10° SE
SMAP 3.1 17:01:07 10° SSE 17:05:46 87° WSW 17:10:27 10° NNW
Sich 1 4.3 17:03:35 10° NNW 17:07:45 44° W 17:11:51 10° SSW
YAOGAN 1 3.9 17:09:18 19° ENE 17:09:42 19° ENE 17:12:46 10° NNE
Cosmos 1656 Rocket 4.2 17:04:48 10° NNW 17:10:02 37° NE 17:15:11 10° ESE
CZ-4C R/B 4.0 17:06:55 10° N 17:10:26 48° WNW 17:13:55 10° SSW
Cosmos 1151 Rocket 2.9 17:08:14 10° S 17:12:30 83° E 17:16:48 10° N
Cosmos 1470 Rocket 3.5 17:08:27 10° N 17:12:45 63° ENE 17:17:02 10° SSE
CSL-04 DEB 4.4 17:10:56 10° NNE 17:15:06 80° ESE 17:19:22 10° SSW
Cosmos 864 Rocket 4.5 17:12:15 10° N 17:18:37 84° E 17:24:51 10° S
Cosmos 2263 4.3 17:13:30 10° NNW 17:19:00 53° ENE 17:24:28 10° SE
Cosmos 1515 Rocket 3.7 17:16:17 10° S 17:20:32 52° E 17:24:51 10° NNE
CZ-2C R/B 3.6 17:17:19 10° SE 17:21:38 31° ENE 17:25:51 10° N
SL-8 Rocket 4.2 17:15:34 10° NNW 17:21:48 75° W 17:28:04 10° S
TIMED 4.4 17:19:39 10° SSW 17:24:00 80° ESE 17:27:39 15° NNE
Cosmos 1238 Rocket 3.8 17:21:21 10° NNE 17:24:52 29° ENE 17:29:00 10° SE
COSMO-SKYMED 1 3.0 17:23:06 18° NE 17:25:56 40° E 17:30:00 10° SSE
TELKOM 3 3.4 17:23:30 10° WNW 17:26:08 47° N 17:26:18 46° NNE
X-37B 1.4 17:25:29 10° WSW 17:28:30 41° SSE 17:29:28 31° ESE
USA 281 3.5 17:22:39 10° ESE 17:28:44 42° NE 17:34:50 10° NNW
SAR-Lupe-4 4.2 17:29:13 33° E 17:29:31 33° E 17:32:47 10° SSE
Nadezhda 3 Rocket 4.4 17:24:05 10° SSE 17:30:00 42° E 17:35:55 10° NNE
USA 81 4.4 17:26:07 10° N 17:31:23 69° W 17:36:37 10° S
Meteor 2-6 Rocket 4.5 17:27:45 10° SSE 17:32:59 43° E 17:37:14 15° NNE
Helios 1A Rocket 3.6 17:33:25 31° ENE 17:33:25 31° ENE 17:36:41 10° N
Cosmos 2228 Rocket 3.7 17:29:03 10° SSE 17:33:11 35° E 17:34:29 29° NE
Meteor 1-4 Rocket 2.5 17:30:53 10° SSW 17:34:28 79° WNW 17:37:26 14° N
H-2A R/B 2.7 17:35:18 27° E 17:36:32 30° ENE 17:40:57 10° N
Cosmos 1812 3.4 17:33:29 10° SSE 17:36:35 34° ESE 17:36:35 34° ESE
Cosmos 1821 Rocket 4.0 17:31:23 10° N 17:37:31 55° ENE 17:43:43 10° SSE
USA 267 3.6 17:34:11 24° E 17:37:56 50° NNE 17:44:12 10° NW
Cosmos 1939 Rocket 2.6 17:35:06 10° SSE 17:38:58 77° ENE 17:42:56 10° N
Cosmos 1328 Rocket 4.1 17:36:14 10° SSW 17:40:28 57° WNW 17:44:48 10° N
Meteor 1-11 Rocket 4.2 17:35:08 10° N 17:40:31 38° ENE 17:45:57 10° SE
CZ-4 R/B 4.4 17:36:45 10° SSE 17:40:47 56° ENE 17:44:51 10° N
CZ-4 R/B 1.8 17:41:27 39° ENE 17:41:27 39° ENE 17:45:04 10° N
PSLV R/B 4.3 17:42:19 38° E 17:42:19 38° E 17:46:05 10° SSE
Cosmos 44 Rocket 3.5 17:37:29 10° NNW 17:42:34 54° NE 17:45:09 28° ESE
BREEZE-M DEB (TANK) 3.9 17:40:13 10° SSW 17:42:40 17° SSE 17:42:53 17° SSE
Cosmos 1933 Rocket 3.5 17:38:20 10° N 17:42:50 88° E 17:47:18 10° S
CSL-04 Rocket 4.3 17:44:05 31° ENE 17:44:05 31° ENE 17:48:39 10° N
IRS-1C Rocket 4.0 17:40:05 10° SSE 17:45:20 74° ENE 17:50:38 10° NNW
SAR-Lupe-1 4.2 17:46:35 51° ESE 17:46:35 51° ESE 17:50:01 10° S
Lacrosse 4 Rocket 3.6 17:46:37 10° SSE 17:46:59 12° SSE 17:46:59 12° SSE
Cosmos 1680 Rocket 4.0 17:45:10 10° SSE 17:49:57 37° ESE 17:50:18 36° E
SKYMED 3 4.4 17:47:24 23° NNE 17:50:02 70° ESE 17:54:21 10° S
SL-24 R/B 3.6 17:49:33 52° ENE 17:50:06 60° E 17:53:42 10° S
Cosmos 2237 Rocket 4.3 17:46:15 10° W 17:50:18 20° NW 17:54:22 10° N
Cosmos 1603 3.6 17:48:30 10° SSW 17:54:05 71° ESE 17:56:56 30° NE
CZ-2D R/B 3.1 17:52:01 10° SSE 17:55:50 83° ENE 17:59:42 10° N
Cosmos 1943 3.1 17:51:51 10° SSW 17:57:27 67° ESE 17:59:58 34° NE
H-2A R/B 4.0 17:53:59 10° N 17:57:33 28° WNW 18:01:12 10° WSW
Cosmos 2369 Rocket 2.7 17:53:08 10° NNW 17:58:46 62° WSW 18:04:18 10° S
Cosmos 1538 Rocket 4.3 17:54:16 10° SSW 17:59:36 69° WNW 18:03:44 18° NNE
Cosmos 1943 Rocket 3.6 17:54:46 10° NW 17:59:51 38° WSW 18:04:58 10° S
Meteor 1-5 Rocket 4.2 17:55:07 10° N 18:01:04 83° ENE 18:06:48 10° SSE
Okean O Rocket 3.8 17:59:06 10° SSW 18:02:48 27° W 18:06:33 10° NW
Cosmos 1782 4.0 17:59:08 10° SSW 18:02:55 43° WNW 18:06:45 10° N
Cosmos 1371 Rocket 4.2 17:58:59 10° NNW 18:03:40 45° NE 18:03:40 45° NE
Okean-O 2.5 17:59:47 10° SSE 18:04:10 71° ENE 18:08:37 10° N
Cosmos 1461 4.5 18:00:13 10° S 18:02:43 25° SSE 18:02:43 25° SSE
ISS -2.7 18:03:28 10° WNW 18:05:55 39° NW 18:05:55 39° NW
ARGOS 4.0 18:08:32 33° NNE 18:08:32 33° NNE 18:12:00 10° N
CENTAUR R/B 2.9 18:02:14 10° S 18:07:35 38° ESE 18:07:44 38° ESE
Cosmos 2056 Rocket 3.9 18:05:10 10° NNW 18:09:29 43° NE 18:09:29 43° NE
Cosmos 2112 Rocket 4.4 18:05:27 10° S 18:09:53 45° SE 18:09:53 45° SE
ERS-2 3.1 18:10:45 27° NNW 18:12:23 45° WNW 18:15:53 10° SW
SKYMED 2 3.8 18:11:44 26° N 18:14:05 67° WNW 18:18:23 10° SSW
NOSS 3-2 (C) 3.8 18:10:26 10° S 18:15:10 40° SE 18:15:10 40° SE
Cosmos 1869 Rocket 3.4 18:13:04 10° N 18:17:35 84° ENE 18:17:49 79° SE
BREEZE-M DEB (TANK) 3.5 18:12:37 10° SW 18:19:59 53° SSE 18:19:59 53° SSE
Meteor 1-27 Rocket 4.2 18:16:17 10° S 18:20:11 42° SE 18:20:11 42° SE
Meteor 1-10 Rocket 4.1 18:20:27 10° S 18:26:05 88° W 18:28:49 32° N
Lacrosse 5 rocket 3.1 18:23:42 10° WNW 18:25:53 21° NNW 18:25:53 21° NNW
Cosmos 1624 Rocket 4.4 18:21:47 10° NNW 18:25:55 50° NNE 18:25:55 50° NNE
Cosmos 371 Rocket 3.8 18:24:27 10° NNW 18:28:00 47° N 18:28:00 47° N
CZ-4B R/B 3.8 18:29:34 17° NW 18:30:22 19° WNW 18:32:39 10° WSW
NOSS 3-2 (A) 3.3 18:35:08 10° SW 18:40:50 89° NW 18:41:27 74° NE
SL-16 R/B 4.3 18:39:18 10° W 18:43:27 20° NW 18:46:58 12° N
Cosmos 1535 Rocket 4.3 18:38:53 10° N 18:45:02 88° W 18:51:09 10° S
YAOGAN 1 3.6 18:46:28 41° NW 18:46:28 41° NW 18:49:42 10° NNW
USA 215 3.1 18:46:43 73° E 18:47:19 79° SE 18:53:52 10° SW
MOS 1 Rocket 4.0 18:52:43 53° NNW 18:53:44 63° WNW 18:59:02 10° SSW
USA 238 DEB 3.6 18:53:37 10° SW 19:00:13 80° NW 19:00:35 77° N
USA 238 3.6 18:53:42 10° SW 19:00:19 80° NW 19:00:39 78° N
CZ-2C R/B 4.4 18:56:56 10° SSW 19:01:28 35° W 19:05:54 10° NNW
Cosmos 1934 Rocket 4.5 19:00:41 10° NNW 19:06:56 59° W 19:13:04 10° S
USA 281 4.0 19:06:54 10° S 19:13:10 47° WSW 19:19:29 10° NW
H-2A R/B 3.1 19:15:55 41° W 19:15:55 41° W 19:20:41 10° NNW
CZ-4 R/B 4.0 19:17:28 18° WNW 19:17:28 18° WNW 19:19:28 10° NW
USA 267 3.4 19:21:32 69° W 19:21:32 69° W 19:27:19 10° NW
CENTAUR R/B 4.0 19:52:01 10° WSW 19:54:58 30° WSW 19:54:58 30° WSW
